Time,TemperatureF,DewpointF,PressureIn,WindDirection,WindDirectionDegrees,WindSpeedMPH,WindSpeedGustMPH,Humidity,HourlyPrecipIn,Conditions,Clouds,dailyrainin,SoftwareType,DateUTC
2013-02-02 12:59:00,15.6,7.9,30.10,SW,226,3.0,3.0,71,0.00,,,0.00,Wunderground v.1.15,2013-02-02 17:59:00,
2013-02-02 13:04:00,16.0,8.3,30.10,SW,224,2.0,5.0,71,0.00,,,0.00,Wunderground v.1.15,2013-02-02 18:04:00,
2013-02-02 13:05:00,16.0,8.3,30.10,WSW,243,4.0,5.0,71,0.00,,,0.00,Wunderground v.1.15,2013-02-02 18:05:00,
2013-02-02 13:09:00,16.3,8.2,30.10,SSW,192,6.0,6.0,70,0.00,,,0.00,Wunderground v.1.15,2013-02-02 18:09:00,
2013-02-02 13:10:00,16.3,8.2,30.10,SSE,160,2.0,7.0,70,0.00,,,0.00,Wunderground v.1.15,2013-02-02 18:10:00,
2013-02-02 13:11:00,16.3,8.2,30.10,WSW,248,3.0,7.0,70,0.00,,,0.00,Wunderground v.1.15,2013-02-02 18:11:00,
2013-02-02 13:14:00,16.3,8.2,30.09,WSW,244,4.0,7.0,70,0.00,,,0.00,Wunderground v.1.15,2013-02-02 18:14:00,
2013-02-02 13:15:00,16.3,8.2,30.09,SW,229,9.0,9.0,70,0.00,,,0.00,Wunderground v.1.15,2013-02-02 18:15:00,
2013-02-02 13:16:00,16.3,7.9,30.09,SSE,166,4.0,9.0,69,0.00,,,0.00,Wunderground v.1.15,2013-02-02 18:16:00,
2013-02-02 13:19:00,16.3,8.2,30.09,West,259,4.0,6.0,70,0.00,,,0.00,Wunderground v.1.15,2013-02-02 18:19:00,
2013-02-02 13:20:00,16.4,8.3,30.09,SSW,211,3.0,6.0,70,0.00,,,0.00,Wunderground v.1.15,2013-02-02 18:20:00,
2013-02-02 13:21:00,16.4,8.3,30.09,SSW,213,5.0,7.0,70,0.00,,,0.00,Wunderground v.1.15,2013-02-02 18:21:00,
2013-02-02 13:25:00,16.3,7.6,30.09,West,271,6.0,9.0,68,0.00,,,0.00,Wunderground v.1.15,2013-02-02 18:25:00,
2013-02-02 13:26:00,16.3,7.6,30.09,South,177,10.0,11.0,68,0.00,,,0.00,Wunderground v.1.15,2013-02-02 18:26:00,
2013-02-02 13:30:00,16.2,7.8,30.09,SW,220,0.0,5.0,69,0.00,,,0.00,Wunderground v.1.15,2013-02-02 18:30:00,
2013-02-02 13:31:00,16.2,7.8,30.09,WSW,246,3.0,5.0,69,0.00,,,0.00,Wunderground v.1.15,2013-02-02 18:31:00,
2013-02-02 13:32:00,16.2,7.8,30.09,SW,236,2.0,5.0,69,0.00,,,0.00,Wunderground v.1.15,2013-02-02 18:32:00,
2013-02-02 13:35:00,16.3,7.9,30.09,SSW,213,1.0,5.0,69,0.00,,,0.00,Wunderground v.1.15,2013-02-02 18:35:00,
2013-02-02 13:36:00,16.4,8.0,30.09,NW,315,4.0,6.0,69,0.00,,,0.00,Wunderground v.1.15,2013-02-02 18:36:00,
2013-02-02 13:37:00,16.4,8.0,30.09,SSW,213,2.0,6.0,69,0.00,,,0.00,Wunderground v.1.15,2013-02-02 18:37:00,
2013-02-02 13:40:00,16.5,8.1,30.09,SW,225,2.0,4.0,69,0.00,,,0.00,Wunderground v.1.15,2013-02-02 18:40:00,
2013-02-02 13:41:00,16.5,8.1,30.09,WSW,238,4.0,8.0,69,0.00,,,0.00,Wunderground v.1.15,2013-02-02 18:41:00,
2013-02-02 13:42:00,16.5,8.1,30.09,WSW,244,2.0,8.0,69,0.00,,,0.00,Wunderground v.1.15,2013-02-02 18:42:00,
2013-02-02 13:45:00,16.6,7.9,30.08,WSW,252,2.0,8.0,68,0.00,,,0.00,Wunderground v.1.15,2013-02-02 18:45:00,
2013-02-02 13:46:00,16.6,8.2,30.08,WSW,248,2.0,8.0,69,0.00,,,0.00,Wunderground v.1.15,2013-02-02 18:46:00,
2013-02-02 13:47:00,16.6,7.9,30.08,WSW,242,3.0,8.0,68,0.00,,,0.00,Wunderground v.1.15,2013-02-02 18:47:00,
2013-02-02 13:48:00,16.6,7.9,30.08,WSW,241,3.0,8.0,68,0.00,,,0.00,Wunderground v.1.15,2013-02-02 18:48:00,
2013-02-02 13:50:00,16.6,7.9,30.08,SSW,211,2.0,5.0,68,0.00,,,0.00,Wunderground v.1.15,2013-02-02 18:50:00,
2013-02-02 13:52:00,16.6,7.5,30.08,South,190,1.0,9.0,67,0.00,,,0.00,Wunderground v.1.15,2013-02-02 18:52:00,
2013-02-02 13:53:00,16.6,7.5,30.08,South,190,1.0,9.0,67,0.00,,,0.00,Wunderground v.1.15,2013-02-02 18:53:00,
2013-02-02 13:55:00,16.6,7.9,30.08,SW,230,4.0,9.0,68,0.00,,,0.00,Wunderground v.1.15,2013-02-02 18:55:00,
2013-02-02 13:57:00,16.5,7.8,30.08,WSW,250,1.0,9.0,68,0.00,,,0.00,Wunderground v.1.15,2013-02-02 18:57:00,
2013-02-02 13:58:00,16.6,7.9,30.08,WNW,288,0.0,9.0,68,0.00,,,0.00,Wunderground v.1.15,2013-02-02 18:58:00,
2013-02-02 14:00:00,16.6,7.9,30.08,SSW,198,2.0,5.0,68,0.00,,,0.00,Wunderground v.1.15,2013-02-02 19:00:00,
2013-02-02 14:02:00,16.7,8.0,30.08,ESE,121,2.0,6.0,68,0.00,,,0.00,Wunderground v.1.15,2013-02-02 19:02:00,
2013-02-02 14:03:00,16.7,7.6,30.08,South,178,0.0,6.0,67,0.00,,,0.00,Wunderground v.1.15,2013-02-02 19:03:00,
2013-02-02 14:05:00,16.8,7.7,30.08,SSW,200,0.0,6.0,67,0.00,,,0.00,Wunderground v.1.15,2013-02-02 19:05:00,
2013-02-02 14:07:00,17.0,8.3,30.07,SW,215,2.0,6.0,68,0.00,,,0.00,Wunderground v.1.15,2013-02-02 19:07:00,
2013-02-02 14:08:00,17.0,7.9,30.07,SSW,205,0.0,6.0,67,0.00,,,0.00,Wunderground v.1.15,2013-02-02 19:08:00,
2013-02-02 14:11:00,17.2,8.1,30.07,West,263,0.0,5.0,67,0.00,,,0.00,Wunderground v.1.15,2013-02-02 19:11:00,
2013-02-02 14:12:00,17.3,7.9,30.07,WSW,258,0.0,5.0,66,0.00,,,0.00,Wunderground v.1.15,2013-02-02 19:12:00,
2013-02-02 14:13:00,17.3,7.9,30.07,SSW,207,3.0,6.0,66,0.00,,,0.00,Wunderground v.1.15,2013-02-02 19:13:00,
2013-02-02 14:14:00,17.4,8.0,30.07,West,259,5.0,6.0,66,0.00,,,0.00,Wunderground v.1.15,2013-02-02 19:14:00,
2013-02-02 14:16:00,17.3,7.5,30.07,SW,228,1.0,6.0,65,0.00,,,0.00,Wunderground v.1.15,2013-02-02 19:16:00,
2013-02-02 14:17:00,17.3,7.5,30.07,West,271,3.0,6.0,65,0.00,,,0.00,Wunderground v.1.15,2013-02-02 19:17:00,
2013-02-02 14:19:00,17.3,7.5,30.07,South,186,1.0,6.0,65,0.00,,,0.00,Wunderground v.1.15,2013-02-02 19:19:00,
2013-02-02 14:21:00,17.5,7.7,30.06,WSW,253,1.0,2.0,65,0.00,,,0.00,Wunderground v.1.15,2013-02-02 19:21:00,
2013-02-02 14:22:00,17.6,7.8,30.07,South,185,0.0,2.0,65,0.00,,,0.00,Wunderground v.1.15,2013-02-02 19:22:00,
2013-02-02 14:24:00,17.6,7.5,30.06,South,178,1.0,2.0,64,0.00,,,0.00,Wunderground v.1.15,2013-02-02 19:24:00,
2013-02-02 14:27:00,17.8,7.7,30.07,South,177,6.0,6.0,64,0.00,,,0.00,Wunderground v.1.15,2013-02-02 19:27:00,
2013-02-02 14:28:00,17.9,8.1,30.07,SE,144,5.0,12.0,65,0.00,,,0.00,Wunderground v.1.15,2013-02-02 19:28:00,
2013-02-02 14:29:00,17.9,7.8,30.07,ENE,63,1.0,12.0,64,0.00,,,0.00,Wunderground v.1.15,2013-02-02 19:29:00,
2013-02-02 14:32:00,17.9,8.1,30.07,SSW,204,0.0,4.0,65,0.00,,,0.00,Wunderground v.1.15,2013-02-02 19:32:00,
2013-02-02 14:33:00,18.0,7.9,30.07,WSW,256,1.0,5.0,64,0.00,,,0.00,Wunderground v.1.15,2013-02-02 19:33:00,
2013-02-02 14:34:00,18.0,8.2,30.07,SSE,154,2.0,5.0,65,0.00,,,0.00,Wunderground v.1.15,2013-02-02 19:34:00,
2013-02-02 14:35:00,18.0,8.2,30.07,South,169,1.0,7.0,65,0.00,,,0.00,Wunderground v.1.15,2013-02-02 19:35:00,
2013-02-02 14:37:00,17.9,7.8,30.07,South,189,4.0,8.0,64,0.00,,,0.00,Wunderground v.1.15,2013-02-02 19:37:00,
2013-02-02 14:38:00,17.9,7.8,30.06,South,183,0.0,8.0,64,0.00,,,0.00,Wunderground v.1.15,2013-02-02 19:38:00,
2013-02-02 14:40:00,17.9,8.1,30.06,WNW,286,0.0,2.0,65,0.00,,,0.00,Wunderground v.1.15,2013-02-02 19:40:00,
2013-02-02 14:42:00,18.0,8.2,30.07,SW,222,2.0,4.0,65,0.00,,,0.00,Wunderground v.1.15,2013-02-02 19:42:00,
2013-02-02 14:44:00,18.0,7.9,30.07,SW,217,1.0,4.0,64,0.00,,,0.00,Wunderground v.1.15,2013-02-02 19:44:00,
2013-02-02 14:45:00,18.0,8.2,30.06,SW,226,1.0,4.0,65,0.00,,,0.00,Wunderground v.1.15,2013-02-02 19:45:00,
2013-02-02 14:47:00,18.1,8.0,30.06,ESE,118,0.0,7.0,64,0.00,,,0.00,Wunderground v.1.15,2013-02-02 19:47:00,
2013-02-02 14:49:00,18.2,8.4,30.06,SSW,202,1.0,7.0,65,0.00,,,0.00,Wunderground v.1.15,2013-02-02 19:49:00,
2013-02-02 14:50:00,18.2,8.1,30.06,SSE,159,4.0,5.0,64,0.00,,,0.00,Wunderground v.1.15,2013-02-02 19:50:00,
2013-02-02 14:52:00,18.2,8.1,30.06,SW,223,1.0,6.0,64,0.00,,,0.00,Wunderground v.1.15,2013-02-02 19:52:00,
2013-02-02 14:54:00,18.1,8.0,30.06,SSW,210,0.0,6.0,64,0.00,,,0.00,Wunderground v.1.15,2013-02-02 19:54:00,
2013-02-02 14:55:00,18.1,8.3,30.06,South,188,0.0,6.0,65,0.00,,,0.00,Wunderground v.1.15,2013-02-02 19:55:00,
2013-02-02 14:57:00,18.1,8.0,30.06,SSE,157,7.0,8.0,64,0.00,,,0.00,Wunderground v.1.15,2013-02-02 19:57:00,
2013-02-02 15:00:00,18.1,8.0,30.06,SSE,148,9.0,9.0,64,0.00,,,0.00,Wunderground v.1.15,2013-02-02 20:00:00,
2013-02-02 15:02:00,18.1,8.3,30.06,WSW,254,0.0,9.0,65,0.00,,,0.00,Wunderground v.1.15,2013-02-02 20:02:00,
2013-02-02 15:05:00,18.2,8.4,30.06,NW,306,4.0,9.0,65,0.00,,,0.00,Wunderground v.1.15,2013-02-02 20:05:00,
2013-02-02 15:06:00,18.2,8.1,30.06,NW,322,0.0,9.0,64,0.00,,,0.00,Wunderground v.1.15,2013-02-02 20:06:00,
2013-02-02 15:08:00,18.3,8.1,30.06,SSW,211,6.0,9.0,64,0.00,,,0.00,Wunderground v.1.15,2013-02-02 20:08:00,
2013-02-02 15:11:00,18.2,8.1,30.06,SW,225,9.0,10.0,64,0.00,,,0.00,Wunderground v.1.15,2013-02-02 20:11:00,
2013-02-02 15:12:00,18.2,8.1,30.06,WSW,244,2.0,10.0,64,0.00,,,0.00,Wunderground v.1.15,2013-02-02 20:12:00,
2013-02-02 15:13:00,18.2,8.1,30.06,South,173,7.0,10.0,64,0.00,,,0.00,Wunderground v.1.15,2013-02-02 20:13:00,
2013-02-02 15:16:00,18.1,8.0,30.06,West,265,1.0,10.0,64,0.00,,,0.00,Wunderground v.1.15,2013-02-02 20:16:00,
2013-02-02 15:17:00,18.2,8.1,30.06,West,281,5.0,10.0,64,0.00,,,0.00,Wunderground v.1.15,2013-02-02 20:17:00,
2013-02-02 15:19:00,18.1,8.3,30.06,SW,229,2.0,10.0,65,0.00,,,0.00,Wunderground v.1.15,2013-02-02 20:19:00,
2013-02-02 15:21:00,18.2,8.4,30.06,SSW,206,3.0,5.0,65,0.00,,,0.00,Wunderground v.1.15,2013-02-02 20:21:00,
2013-02-02 15:23:00,18.2,8.1,30.06,West,267,5.0,7.0,64,0.00,,,0.00,Wunderground v.1.15,2013-02-02 20:23:00,
2013-02-02 15:24:00,18.3,8.1,30.06,WSW,244,3.0,7.0,64,0.00,,,0.00,Wunderground v.1.15,2013-02-02 20:24:00,
2013-02-02 15:26:00,18.3,8.1,30.06,South,181,0.0,7.0,64,0.00,,,0.00,Wunderground v.1.15,2013-02-02 20:26:00,
2013-02-02 15:29:00,18.4,8.6,30.05,SSW,205,1.0,7.0,65,0.00,,,0.00,Wunderground v.1.15,2013-02-02 20:29:00,
2013-02-02 15:31:00,18.4,8.9,30.05,West,269,6.0,7.0,66,0.00,,,0.00,Wunderground v.1.15,2013-02-02 20:31:00,
2013-02-02 15:34:00,18.4,9.3,30.05,SSW,201,2.0,7.0,67,0.00,,,0.00,Wunderground v.1.15,2013-02-02 20:34:00,
2013-02-02 15:36:00,18.3,9.5,30.06,West,279,6.0,8.0,68,0.00,,,0.00,Wunderground v.1.15,2013-02-02 20:36:00,
2013-02-02 15:37:00,18.2,9.4,30.06,West,261,6.0,8.0,68,0.00,,,0.00,Wunderground v.1.15,2013-02-02 20:37:00,
2013-02-02 15:39:00,18.2,9.7,30.06,SW,236,2.0,8.0,69,0.00,,,0.00,Wunderground v.1.15,2013-02-02 20:39:00,
2013-02-02 15:41:00,18.1,10.0,30.06,WSW,241,5.0,9.0,70,0.00,,,0.00,Wunderground v.1.15,2013-02-02 20:41:00,
2013-02-02 15:42:00,18.1,10.3,30.06,WSW,253,4.0,9.0,71,0.00,,,0.00,Wunderground v.1.15,2013-02-02 20:42:00,
2013-02-02 15:44:00,18.0,10.2,30.06,SSW,211,2.0,9.0,71,0.00,,,0.00,Wunderground v.1.15,2013-02-02 20:44:00,
2013-02-02 15:45:00,18.0,10.5,30.06,SSW,205,0.0,9.0,72,0.00,,,0.00,Wunderground v.1.15,2013-02-02 20:45:00,
2013-02-02 15:46:00,18.0,10.5,30.06,WSW,252,1.0,9.0,72,0.00,,,0.00,Wunderground v.1.15,2013-02-02 20:46:00,
2013-02-02 15:47:00,18.0,10.8,30.06,SSW,212,3.0,9.0,73,0.00,,,0.00,Wunderground v.1.15,2013-02-02 20:47:00,
2013-02-02 15:49:00,18.0,10.8,30.06,SSW,201,3.0,3.0,73,0.00,,,0.00,Wunderground v.1.15,2013-02-02 20:49:00,
2013-02-02 15:51:00,17.9,11.0,30.06,SW,223,0.0,5.0,74,0.00,,,0.00,Wunderground v.1.15,2013-02-02 20:51:00,
2013-02-02 15:52:00,17.9,11.0,30.06,SW,223,0.0,5.0,74,0.00,,,0.00,Wunderground v.1.15,2013-02-02 20:52:00,
2013-02-02 15:55:00,17.9,11.3,30.06,SW,235,1.0,5.0,75,0.00,,,0.00,Wunderground v.1.15,2013-02-02 20:55:00,
2013-02-02 15:56:00,17.9,11.3,30.05,SW,235,0.0,5.0,75,0.00,,,0.00,Wunderground v.1.15,2013-02-02 20:56:00,
2013-02-02 15:57:00,17.9,11.3,30.05,WSW,238,0.0,5.0,75,0.00,,,0.00,Wunderground v.1.15,2013-02-02 20:57:00,
2013-02-02 16:01:00,17.9,11.3,30.05,SSW,208,2.0,5.0,75,0.00,,,0.00,Wunderground v.1.15,2013-02-02 21:01:00,
2013-02-02 16:02:00,17.9,11.6,30.05,SSW,208,0.0,5.0,76,0.00,,,0.00,Wunderground v.1.15,2013-02-02 21:02:00,
2013-02-02 16:06:00,17.9,11.6,30.05,SW,223,0.0,5.0,76,0.00,,,0.00,Wunderground v.1.15,2013-02-02 21:06:00,
2013-02-02 16:08:00,17.8,11.8,30.05,South,173,0.0,5.0,77,0.00,,,0.00,Wunderground v.1.15,2013-02-02 21:08:00,
2013-02-02 16:11:00,17.8,11.8,30.05,WSW,242,2.0,2.0,77,0.00,,,0.00,Wunderground v.1.15,2013-02-02 21:11:00,
2013-02-02 16:13:00,17.8,11.8,30.05,West,259,4.0,8.0,77,0.00,,,0.00,Wunderground v.1.15,2013-02-02 21:13:00,
2013-02-02 16:16:00,17.7,11.4,30.05,South,186,1.0,8.0,76,0.00,,,0.00,Wunderground v.1.15,2013-02-02 21:16:00,
2013-02-02 16:17:00,17.7,11.4,30.05,SSW,201,1.0,8.0,76,0.00,,,0.00,Wunderground v.1.15,2013-02-02 21:17:00,
2013-02-02 16:18:00,17.7,11.4,30.05,WNW,286,0.0,8.0,76,0.00,,,0.00,Wunderground v.1.15,2013-02-02 21:18:00,
2013-02-02 16:21:00,17.6,11.6,30.05,WSW,237,0.0,2.0,77,0.00,,,0.00,Wunderground v.1.15,2013-02-02 21:21:00,
2013-02-02 16:22:00,17.6,11.6,30.05,WSW,237,0.0,2.0,77,0.00,,,0.00,Wunderground v.1.15,2013-02-02 21:22:00,
2013-02-02 16:23:00,17.6,11.9,30.05,SSW,205,0.0,4.0,78,0.00,,,0.00,Wunderground v.1.15,2013-02-02 21:23:00,
2013-02-02 16:27:00,17.4,11.7,30.05,WSW,252,0.0,4.0,78,0.00,,,0.00,Wunderground v.1.15,2013-02-02 21:27:00,
2013-02-02 16:28:00,17.4,12.0,30.05,SW,220,0.0,4.0,79,0.00,,,0.00,Wunderground v.1.15,2013-02-02 21:28:00,
2013-02-02 16:32:00,17.3,12.2,30.05,WNW,284,4.0,4.0,80,0.00,,,0.00,Wunderground v.1.15,2013-02-02 21:32:00,
2013-02-02 16:34:00,17.2,12.4,30.05,WSW,247,3.0,5.0,81,0.00,,,0.00,Wunderground v.1.15,2013-02-02 21:34:00,
2013-02-02 16:37:00,17.1,12.6,30.05,WNW,293,0.0,5.0,82,0.00,,,0.00,Wunderground v.1.15,2013-02-02 21:37:00,
2013-02-02 16:39:00,17.1,12.8,30.04,SW,225,0.0,5.0,83,0.00,,,0.00,Wunderground v.1.15,2013-02-02 21:39:00,
2013-02-02 16:42:00,17.0,12.7,30.04,SW,219,0.0,3.0,83,0.00,,,0.00,Wunderground v.1.15,2013-02-02 21:42:00,
2013-02-02 16:43:00,17.0,12.7,30.04,SW,219,0.0,3.0,83,0.00,,,0.00,Wunderground v.1.15,2013-02-02 21:43:00,
2013-02-02 16:44:00,16.9,12.6,30.04,WSW,246,1.0,3.0,83,0.00,,,0.00,Wunderground v.1.15,2013-02-02 21:44:00,
2013-02-02 16:48:00,16.8,12.8,30.04,WSW,249,0.0,3.0,84,0.00,,,0.00,Wunderground v.1.15,2013-02-02 21:48:00,
2013-02-02 16:50:00,16.7,12.7,30.04,WSW,249,0.0,1.0,84,0.00,,,0.00,Wunderground v.1.15,2013-02-02 21:50:00,
2013-02-02 16:53:00,16.7,13.0,30.04,WSW,249,0.0,1.0,85,0.00,,,0.00,Wunderground v.1.15,2013-02-02 21:53:00,
2013-02-02 16:54:00,16.7,13.0,30.04,WSW,249,0.0,1.0,85,0.00,,,0.00,Wunderground v.1.15,2013-02-02 21:54:00,
2013-02-02 16:55:00,16.6,12.9,30.04,WSW,249,0.0,1.0,85,0.00,,,0.00,Wunderground v.1.15,2013-02-02 21:55:00,
2013-02-02 16:58:00,16.6,12.9,30.04,WSW,249,0.0,1.0,85,0.00,,,0.00,Wunderground v.1.15,2013-02-02 21:58:00,
2013-02-02 16:59:00,16.6,12.9,30.04,WSW,249,0.0,1.0,85,0.00,,,0.00,Wunderground v.1.15,2013-02-02 21:59:00,
2013-02-02 17:00:00,16.6,12.9,30.04,WSW,250,0.0,0.0,85,0.00,,,0.00,Wunderground v.1.15,2013-02-02 22:00:00,
2013-02-02 17:03:00,16.5,12.8,30.04,WSW,250,0.0,0.0,85,0.00,,,0.00,Wunderground v.1.15,2013-02-02 22:03:00,
2013-02-02 17:05:00,16.4,12.7,30.04,WSW,249,0.0,0.0,85,0.00,,,0.00,Wunderground v.1.15,2013-02-02 22:05:00,
2013-02-02 17:08:00,16.4,12.7,30.04,SSW,212,0.0,1.0,85,0.00,,,0.00,Wunderground v.1.15,2013-02-02 22:08:00,
2013-02-02 17:09:00,16.3,12.6,30.04,SW,215,0.0,1.0,85,0.00,,,0.00,Wunderground v.1.15,2013-02-02 22:09:00,
2013-02-02 17:10:00,16.3,12.3,30.04,SW,215,0.0,0.0,84,0.00,,,0.00,Wunderground v.1.15,2013-02-02 22:10:00,
2013-02-02 17:13:00,16.3,12.3,30.04,SW,215,0.0,0.0,84,0.00,,,0.00,Wunderground v.1.15,2013-02-02 22:13:00,
2013-02-02 17:14:00,16.3,12.3,30.04,SW,215,0.0,0.0,84,0.00,,,0.00,Wunderground v.1.15,2013-02-02 22:14:00,
2013-02-02 17:15:00,16.3,12.3,30.04,SW,216,2.0,4.0,84,0.00,,,0.00,Wunderground v.1.15,2013-02-02 22:15:00,
2013-02-02 17:19:00,16.3,11.8,30.04,SW,226,0.0,4.0,82,0.00,,,0.00,Wunderground v.1.15,2013-02-02 22:19:00,
2013-02-02 17:20:00,16.2,11.7,30.04,SW,226,0.0,0.0,82,0.00,,,0.00,Wunderground v.1.15,2013-02-02 22:20:00,
2013-02-02 17:24:00,16.3,11.8,30.04,SW,226,0.0,0.0,82,0.00,,,0.00,Wunderground v.1.15,2013-02-02 22:24:00,
2013-02-02 17:25:00,16.2,11.7,30.04,SW,226,0.0,0.0,82,0.00,,,0.00,Wunderground v.1.15,2013-02-02 22:25:00,
2013-02-02 17:26:00,16.3,11.8,30.04,SW,226,0.0,0.0,82,0.00,,,0.00,Wunderground v.1.15,2013-02-02 22:26:00,
2013-02-02 17:30:00,16.3,11.8,30.04,SW,226,0.0,0.0,82,0.00,,,0.00,Wunderground v.1.15,2013-02-02 22:30:00,
2013-02-02 17:31:00,16.3,11.8,30.04,SW,226,0.0,0.0,82,0.00,,,0.00,Wunderground v.1.15,2013-02-02 22:31:00,
2013-02-02 17:35:00,16.3,11.8,30.04,SW,231,0.0,2.0,82,0.00,,,0.00,Wunderground v.1.15,2013-02-02 22:35:00,
2013-02-02 17:36:00,16.2,11.4,30.04,SW,231,0.0,2.0,81,0.00,,,0.00,Wunderground v.1.15,2013-02-02 22:36:00,
2013-02-02 17:37:00,16.3,11.5,30.04,SW,231,0.0,2.0,81,0.00,,,0.00,Wunderground v.1.15,2013-02-02 22:37:00,
2013-02-02 17:40:00,16.3,11.5,30.04,SW,231,0.0,0.0,81,0.00,,,0.00,Wunderground v.1.15,2013-02-02 22:40:00,
2013-02-02 17:41:00,16.3,11.5,30.04,SW,231,0.0,0.0,81,0.00,,,0.00,Wunderground v.1.15,2013-02-02 22:41:00,
2013-02-02 17:42:00,16.3,11.5,30.04,SW,231,0.0,0.0,81,0.00,,,0.00,Wunderground v.1.15,2013-02-02 22:42:00,
2013-02-02 17:45:00,16.3,11.5,30.04,SW,216,0.0,2.0,81,0.00,,,0.00,Wunderground v.1.15,2013-02-02 22:45:00,
2013-02-02 17:47:00,16.3,11.5,30.04,SW,216,0.0,2.0,81,0.00,,,0.00,Wunderground v.1.15,2013-02-02 22:47:00,
2013-02-02 17:50:00,16.3,11.5,30.04,SW,216,0.0,0.0,81,0.00,,,0.00,Wunderground v.1.15,2013-02-02 22:50:00,
2013-02-02 17:52:00,16.3,11.5,30.04,SW,216,0.0,0.0,81,0.00,,,0.00,Wunderground v.1.15,2013-02-02 22:52:00,
2013-02-02 17:55:00,16.3,11.2,30.04,SSW,195,0.0,3.0,80,0.00,,,0.00,Wunderground v.1.15,2013-02-02 22:55:00,
2013-02-02 17:57:00,16.3,11.2,30.04,SSW,195,0.0,3.0,80,0.00,,,0.00,Wunderground v.1.15,2013-02-02 22:57:00,
2013-02-02 17:58:00,16.3,11.2,30.04,SSW,195,0.0,3.0,80,0.00,,,0.00,Wunderground v.1.15,2013-02-02 22:58:00,
2013-02-02 18:01:00,16.3,10.9,30.04,SSW,195,1.0,1.0,79,0.00,,,0.00,Wunderground v.1.15,2013-02-02 23:01:00,
2013-02-02 18:02:00,16.4,11.0,30.04,SSW,195,0.0,1.0,79,0.00,,,0.00,Wunderground v.1.15,2013-02-02 23:02:00,
2013-02-02 18:03:00,16.3,10.9,30.04,SSW,195,1.0,1.0,79,0.00,,,0.00,Wunderground v.1.15,2013-02-02 23:03:00,
2013-02-02 18:04:00,16.4,11.0,30.04,SSW,195,0.0,2.0,79,0.00,,,0.00,Wunderground v.1.15,2013-02-02 23:04:00,
2013-02-02 18:06:00,16.4,11.0,30.05,SSW,195,0.0,2.0,79,0.00,,,0.00,Wunderground v.1.15,2013-02-02 23:06:00,
2013-02-02 18:07:00,16.4,11.0,30.04,SSW,195,0.0,2.0,79,0.00,,,0.00,Wunderground v.1.15,2013-02-02 23:07:00,
2013-02-02 18:08:00,16.4,11.0,30.04,SSW,195,0.0,2.0,79,0.00,,,0.00,Wunderground v.1.15,2013-02-02 23:08:00,
2013-02-02 18:09:00,16.4,10.7,30.05,South,190,0.0,0.0,78,0.00,,,0.00,Wunderground v.1.15,2013-02-02 23:09:00,
2013-02-02 18:12:00,16.4,10.7,30.05,SSW,197,0.0,3.0,78,0.00,,,0.00,Wunderground v.1.15,2013-02-02 23:12:00,
2013-02-02 18:13:00,16.4,10.7,30.04,SSW,205,0.0,3.0,78,0.00,,,0.00,Wunderground v.1.15,2013-02-02 23:13:00,
2013-02-02 18:14:00,16.4,10.7,30.04,SSW,205,0.0,3.0,78,0.00,,,0.00,Wunderground v.1.15,2013-02-02 23:14:00,
2013-02-02 18:17:00,16.4,10.4,30.04,SSW,201,0.0,3.0,77,0.00,,,0.00,Wunderground v.1.15,2013-02-02 23:17:00,
2013-02-02 18:19:00,16.4,10.4,30.04,SSW,203,0.0,3.0,77,0.00,,,0.00,Wunderground v.1.15,2013-02-02 23:19:00,
2013-02-02 18:20:00,16.4,10.4,30.04,SSW,203,0.0,0.0,77,0.00,,,0.00,Wunderground v.1.15,2013-02-02 23:20:00,
2013-02-02 18:22:00,16.4,10.2,30.04,West,259,0.0,2.0,76,0.00,,,0.00,Wunderground v.1.15,2013-02-02 23:22:00,
2013-02-02 18:23:00,16.4,10.2,30.04,West,259,0.0,2.0,76,0.00,,,0.00,Wunderground v.1.15,2013-02-02 23:23:00,
2013-02-02 18:24:00,16.4,10.2,30.04,South,171,2.0,4.0,76,0.00,,,0.00,Wunderground v.1.15,2013-02-02 23:24:00,
2013-02-02 18:25:00,16.4,10.2,30.04,WSW,238,3.0,5.0,76,0.00,,,0.00,Wunderground v.1.15,2013-02-02 23:25:00,
2013-02-02 18:27:00,16.5,10.0,30.04,SSW,199,0.0,5.0,75,0.00,,,0.00,Wunderground v.1.15,2013-02-02 23:27:00,
2013-02-02 18:28:00,16.5,10.0,30.04,SSW,205,2.0,5.0,75,0.00,,,0.00,Wunderground v.1.15,2013-02-02 23:28:00,
2013-02-02 18:30:00,16.6,10.1,30.04,SSW,205,0.0,2.0,75,0.00,,,0.00,Wunderground v.1.15,2013-02-02 23:30:00,
2013-02-02 18:33:00,16.6,10.1,30.04,WSW,238,0.0,3.0,75,0.00,,,0.00,Wunderground v.1.15,2013-02-02 23:33:00,
2013-02-02 18:35:00,16.6,10.1,30.04,WSW,255,0.0,3.0,75,0.00,,,0.00,Wunderground v.1.15,2013-02-02 23:35:00,
2013-02-02 18:38:00,16.6,10.1,30.04,WSW,255,0.0,3.0,75,0.00,,,0.00,Wunderground v.1.15,2013-02-02 23:38:00,
2013-02-02 18:40:00,16.6,10.1,30.04,SSW,213,0.0,0.0,75,0.00,,,0.00,Wunderground v.1.15,2013-02-02 23:40:00,
2013-02-02 18:43:00,16.6,10.3,30.04,SSW,212,0.0,4.0,76,0.00,,,0.00,Wunderground v.1.15,2013-02-02 23:43:00,
2013-02-02 18:45:00,16.5,10.0,30.04,SSW,212,0.0,4.0,75,0.00,,,0.00,Wunderground v.1.15,2013-02-02 23:45:00,
2013-02-02 18:49:00,16.5,10.0,30.04,WSW,238,0.0,4.0,75,0.00,,,0.00,Wunderground v.1.15,2013-02-02 23:49:00,
2013-02-02 18:50:00,16.5,10.3,30.04,SW,234,0.0,1.0,76,0.00,,,0.00,Wunderground v.1.15,2013-02-02 23:50:00,
2013-02-02 18:54:00,16.4,10.2,30.04,WSW,246,0.0,2.0,76,0.00,,,0.00,Wunderground v.1.15,2013-02-02 23:54:00,
2013-02-02 18:55:00,16.4,10.2,30.04,WSW,246,0.0,2.0,76,0.00,,,0.00,Wunderground v.1.15,2013-02-02 23:55:00,
2013-02-02 18:56:00,16.4,10.2,30.04,WSW,246,0.0,2.0,76,0.00,,,0.00,Wunderground v.1.15,2013-02-02 23:56:00,
2013-02-02 19:00:00,16.4,10.2,30.04,WSW,246,0.0,1.0,76,0.00,,,0.00,Wunderground v.1.15,2013-02-03 00:00:00,
2013-02-02 19:01:00,16.4,10.2,30.04,WSW,246,0.0,1.0,76,0.00,,,0.00,Wunderground v.1.15,2013-02-03 00:01:00,
2013-02-02 19:05:00,16.4,10.4,30.04,WSW,246,1.0,1.0,77,0.00,,,0.00,Wunderground v.1.15,2013-02-03 00:05:00,
2013-02-02 19:06:00,16.3,10.4,30.04,WSW,246,0.0,2.0,77,0.00,,,0.00,Wunderground v.1.15,2013-02-03 00:06:00,
2013-02-02 19:10:00,16.3,10.4,30.04,WSW,246,0.0,0.0,77,0.00,,,0.00,Wunderground v.1.15,2013-02-03 00:10:00,
2013-02-02 19:11:00,16.3,10.4,30.04,WSW,246,0.0,0.0,77,0.00,,,0.00,Wunderground v.1.15,2013-02-03 00:11:00,
2013-02-02 19:15:00,16.3,10.4,30.04,WSW,246,0.0,0.0,77,0.00,,,0.00,Wunderground v.1.15,2013-02-03 00:15:00,
2013-02-02 19:16:00,16.2,10.3,30.04,WSW,246,0.0,0.0,77,0.00,,,0.00,Wunderground v.1.15,2013-02-03 00:16:00,
2013-02-02 19:20:00,16.2,10.3,30.04,WSW,246,0.0,0.0,77,0.00,,,0.00,Wunderground v.1.15,2013-02-03 00:20:00,
2013-02-02 19:21:00,16.2,10.3,30.04,WSW,246,1.0,1.0,77,0.00,,,0.00,Wunderground v.1.15,2013-02-03 00:21:00,
2013-02-02 19:22:00,16.2,10.3,30.04,WSW,246,0.0,2.0,77,0.00,,,0.00,Wunderground v.1.15,2013-02-03 00:22:00,
2013-02-02 19:25:00,16.2,10.3,30.04,WSW,246,0.0,2.0,77,0.00,,,0.00,Wunderground v.1.15,2013-02-03 00:25:00,
2013-02-02 19:26:00,16.2,10.3,30.04,WSW,246,0.0,2.0,77,0.00,,,0.00,Wunderground v.1.15,2013-02-03 00:26:00,
2013-02-02 19:27:00,16.2,10.3,30.04,WSW,246,0.0,2.0,77,0.00,,,0.00,Wunderground v.1.15,2013-02-03 00:27:00,
2013-02-02 19:31:00,16.1,9.9,30.04,WSW,246,0.0,2.0,76,0.00,,,0.00,Wunderground v.1.15,2013-02-03 00:31:00,
2013-02-02 19:32:00,16.1,9.9,30.04,WSW,246,0.0,2.0,76,0.00,,,0.00,Wunderground v.1.15,2013-02-03 00:32:00,
2013-02-02 19:36:00,16.1,10.2,30.04,WSW,246,0.0,2.0,77,0.00,,,0.00,Wunderground v.1.15,2013-02-03 00:36:00,
2013-02-02 19:37:00,16.2,10.3,30.04,WSW,246,0.0,2.0,77,0.00,,,0.00,Wunderground v.1.15,2013-02-03 00:37:00,
2013-02-02 19:41:00,16.2,10.3,30.04,WSW,246,0.0,2.0,77,0.00,,,0.00,Wunderground v.1.15,2013-02-03 00:41:00,
2013-02-02 19:42:00,16.2,10.0,30.04,WSW,246,1.0,2.0,76,0.00,,,0.00,Wunderground v.1.15,2013-02-03 00:42:00,
2013-02-02 19:46:00,16.2,10.0,30.04,WSW,246,0.0,2.0,76,0.00,,,0.00,Wunderground v.1.15,2013-02-03 00:46:00,
2013-02-02 19:48:00,16.2,10.0,30.04,WSW,246,0.0,2.0,76,0.00,,,0.00,Wunderground v.1.15,2013-02-03 00:48:00,
2013-02-02 19:51:00,16.2,10.0,30.04,WSW,246,0.0,1.0,76,0.00,,,0.00,Wunderground v.1.15,2013-02-03 00:51:00,
2013-02-02 19:52:00,16.2,10.3,30.04,WSW,246,0.0,1.0,77,0.00,,,0.00,Wunderground v.1.15,2013-02-03 00:52:00,
2013-02-02 19:53:00,16.2,10.3,30.04,WSW,246,0.0,1.0,77,0.00,,,0.00,Wunderground v.1.15,2013-02-03 00:53:00,
2013-02-02 19:56:00,16.2,10.3,30.04,WSW,246,0.0,1.0,77,0.00,,,0.00,Wunderground v.1.15,2013-02-03 00:56:00,
2013-02-02 19:57:00,16.2,10.3,30.04,WSW,246,0.0,1.0,77,0.00,,,0.00,Wunderground v.1.15,2013-02-03 00:57:00,
2013-02-02 19:58:00,16.2,10.3,30.04,WSW,246,0.0,1.0,77,0.00,,,0.00,Wunderground v.1.15,2013-02-03 00:58:00,
2013-02-02 20:02:00,16.2,10.3,30.04,WSW,246,0.0,0.0,77,0.00,,,0.00,Wunderground v.1.15,2013-02-03 01:02:00,
2013-02-02 20:03:00,16.2,10.3,30.04,WSW,246,0.0,0.0,77,0.00,,,0.00,Wunderground v.1.15,2013-02-03 01:03:00,
2013-02-02 20:07:00,16.2,10.3,30.04,WSW,246,0.0,1.0,77,0.00,,,0.00,Wunderground v.1.15,2013-02-03 01:07:00,
2013-02-02 20:08:00,16.2,10.3,30.04,WSW,246,0.0,1.0,77,0.00,,,0.00,Wunderground v.1.15,2013-02-03 01:08:00,
2013-02-02 20:12:00,16.1,10.2,30.04,WSW,246,0.0,0.0,77,0.00,,,0.00,Wunderground v.1.15,2013-02-03 01:12:00,
2013-02-02 20:13:00,16.2,10.3,30.04,WSW,246,0.0,0.0,77,0.00,,,0.00,Wunderground v.1.15,2013-02-03 01:13:00,
2013-02-02 20:14:00,16.1,10.2,30.04,WSW,246,0.0,0.0,77,0.00,,,0.00,Wunderground v.1.15,2013-02-03 01:14:00,
2013-02-02 20:17:00,16.1,9.9,30.04,WSW,246,0.0,1.0,76,0.00,,,0.00,Wunderground v.1.15,2013-02-03 01:17:00,
2013-02-02 20:18:00,16.1,10.2,30.04,WSW,246,0.0,1.0,77,0.00,,,0.00,Wunderground v.1.15,2013-02-03 01:18:00,
2013-02-02 20:19:00,16.1,10.2,30.04,WSW,246,0.0,0.0,77,0.00,,,0.00,Wunderground v.1.15,2013-02-03 01:19:00,
2013-02-02 20:23:00,16.1,10.2,30.04,WSW,246,0.0,0.0,77,0.00,,,0.00,Wunderground v.1.15,2013-02-03 01:23:00,
2013-02-02 20:24:00,16.1,10.2,30.04,WSW,246,0.0,0.0,77,0.00,,,0.00,Wunderground v.1.15,2013-02-03 01:24:00,
2013-02-02 20:28:00,16.1,10.2,30.04,WSW,246,0.0,0.0,77,0.00,,,0.00,Wunderground v.1.15,2013-02-03 01:28:00,
2013-02-02 20:29:00,16.1,10.2,30.04,WSW,246,0.0,0.0,77,0.00,,,0.00,Wunderground v.1.15,2013-02-03 01:29:00,
2013-02-02 20:30:00,16.1,10.2,30.04,WSW,246,0.0,0.0,77,0.00,,,0.00,Wunderground v.1.15,2013-02-03 01:30:00,
2013-02-02 20:34:00,16.1,10.2,30.04,WSW,246,0.0,0.0,77,0.00,,,0.00,Wunderground v.1.15,2013-02-03 01:34:00,
2013-02-02 20:35:00,16.1,10.2,30.04,WSW,246,0.0,0.0,77,0.00,,,0.00,Wunderground v.1.15,2013-02-03 01:35:00,
2013-02-02 20:36:00,16.1,10.4,30.04,WSW,246,0.0,0.0,78,0.00,,,0.00,Wunderground v.1.15,2013-02-03 01:36:00,
2013-02-02 20:39:00,16.1,10.4,30.04,WSW,246,0.0,0.0,78,0.00,,,0.00,Wunderground v.1.15,2013-02-03 01:39:00,
2013-02-02 20:40:00,16.1,10.4,30.04,WSW,246,0.0,0.0,78,0.00,,,0.00,Wunderground v.1.15,2013-02-03 01:40:00,
2013-02-02 20:41:00,16.1,10.4,30.04,WSW,246,0.0,0.0,78,0.00,,,0.00,Wunderground v.1.15,2013-02-03 01:41:00,
2013-02-02 20:44:00,16.0,10.3,30.04,WSW,246,0.0,0.0,78,0.00,,,0.00,Wunderground v.1.15,2013-02-03 01:44:00,
2013-02-02 20:45:00,16.1,10.4,30.04,WSW,246,0.0,0.0,78,0.00,,,0.00,Wunderground v.1.15,2013-02-03 01:45:00,
2013-02-02 20:46:00,16.0,10.3,30.04,WSW,246,0.0,0.0,78,0.00,,,0.00,Wunderground v.1.15,2013-02-03 01:46:00,
2013-02-02 20:49:00,16.1,10.7,30.04,WSW,246,0.0,0.0,79,0.00,,,0.00,Wunderground v.1.15,2013-02-03 01:49:00,
2013-02-02 20:50:00,16.0,10.6,30.04,WSW,246,0.0,0.0,79,0.00,,,0.00,Wunderground v.1.15,2013-02-03 01:50:00,
2013-02-02 20:51:00,16.1,10.7,30.04,WSW,246,0.0,0.0,79,0.00,,,0.00,Wunderground v.1.15,2013-02-03 01:51:00,
2013-02-02 20:55:00,16.1,10.4,30.04,WSW,246,0.0,2.0,78,0.00,,,0.00,Wunderground v.1.15,2013-02-03 01:55:00,
2013-02-02 20:56:00,16.1,10.4,30.04,WSW,246,0.0,2.0,78,0.00,,,0.00,Wunderground v.1.15,2013-02-03 01:56:00,
2013-02-02 21:00:00,16.1,10.4,30.05,WSW,246,0.0,1.0,78,0.00,,,0.00,Wunderground v.1.15,2013-02-03 02:00:00,
2013-02-02 21:02:00,16.1,10.7,30.05,WSW,246,0.0,1.0,79,0.00,,,0.00,Wunderground v.1.15,2013-02-03 02:02:00,
2013-02-02 21:06:00,16.1,10.7,30.05,WSW,246,0.0,1.0,79,0.00,,,0.00,Wunderground v.1.15,2013-02-03 02:06:00,
2013-02-02 21:07:00,16.0,10.6,30.05,WSW,246,0.0,1.0,79,0.00,,,0.00,Wunderground v.1.15,2013-02-03 02:07:00,
2013-02-02 21:11:00,16.0,10.9,30.05,WSW,246,0.0,0.0,80,0.00,,,0.00,Wunderground v.1.15,2013-02-03 02:11:00,
2013-02-02 21:12:00,16.0,10.9,30.05,WSW,246,0.0,0.0,80,0.00,,,0.00,Wunderground v.1.15,2013-02-03 02:12:00,
2013-02-02 21:16:00,15.9,11.1,30.05,West,281,0.0,3.0,81,0.00,,,0.00,Wunderground v.1.15,2013-02-03 02:16:00,
2013-02-02 21:17:00,15.9,11.1,30.05,West,281,0.0,3.0,81,0.00,,,0.00,Wunderground v.1.15,2013-02-03 02:17:00,
2013-02-02 21:21:00,15.8,11.3,30.05,West,281,0.0,0.0,82,0.00,,,0.00,Wunderground v.1.15,2013-02-03 02:21:00,
2013-02-02 21:22:00,15.8,11.6,30.05,West,280,2.0,3.0,83,0.00,,,0.00,Wunderground v.1.15,2013-02-03 02:22:00,
2013-02-02 21:26:00,15.7,11.7,30.05,NW,304,0.0,3.0,84,0.00,,,0.00,Wunderground v.1.15,2013-02-03 02:26:00,
2013-02-02 21:27:00,15.7,11.7,30.05,West,276,0.0,3.0,84,0.00,,,0.00,Wunderground v.1.15,2013-02-03 02:27:00,
2013-02-02 21:31:00,15.6,11.9,30.05,West,281,0.0,1.0,85,0.00,,,0.00,Wunderground v.1.15,2013-02-03 02:31:00,
2013-02-02 21:32:00,15.6,12.2,30.05,West,281,0.0,1.0,86,0.00,,,0.00,Wunderground v.1.15,2013-02-03 02:32:00,
2013-02-02 21:33:00,15.6,12.2,30.05,West,281,0.0,1.0,86,0.00,,,0.00,Wunderground v.1.15,2013-02-03 02:33:00,
2013-02-02 21:36:00,15.5,12.1,30.05,West,281,2.0,2.0,86,0.00,,,0.00,Wunderground v.1.15,2013-02-03 02:36:00,
2013-02-02 21:37:00,15.5,12.1,30.05,West,281,0.0,2.0,86,0.00,,,0.00,Wunderground v.1.15,2013-02-03 02:37:00,
2013-02-02 21:38:00,15.4,12.2,30.05,West,281,0.0,2.0,87,0.00,,,0.00,Wunderground v.1.15,2013-02-03 02:38:00,
2013-02-02 21:42:00,15.4,12.5,30.05,SW,229,0.0,2.0,88,0.00,,,0.00,Wunderground v.1.15,2013-02-03 02:42:00,
2013-02-02 21:43:00,15.3,12.4,30.05,SW,229,0.0,2.0,88,0.00,,,0.00,Wunderground v.1.15,2013-02-03 02:43:00,
2013-02-02 21:47:00,15.3,12.4,30.05,WNW,301,0.0,3.0,88,0.00,,,0.00,Wunderground v.1.15,2013-02-03 02:47:00,
2013-02-02 21:48:00,15.3,12.4,30.05,WNW,301,1.0,3.0,88,0.00,,,0.00,Wunderground v.1.15,2013-02-03 02:48:00,
2013-02-02 21:49:00,15.3,12.4,30.05,WNW,301,0.0,3.0,88,0.00,,,0.00,Wunderground v.1.15,2013-02-03 02:49:00,
2013-02-02 21:53:00,15.2,12.3,30.05,WNW,301,0.0,1.0,88,0.00,,,0.00,Wunderground v.1.15,2013-02-03 02:53:00,
2013-02-02 21:54:00,15.2,12.3,30.05,WNW,301,0.0,1.0,88,0.00,,,0.00,Wunderground v.1.15,2013-02-03 02:54:00,
2013-02-02 21:58:00,15.1,12.4,30.04,WNW,301,0.0,1.0,89,0.00,,,0.00,Wunderground v.1.15,2013-02-03 02:58:00,
2013-02-02 21:59:00,15.1,12.4,30.04,WNW,301,0.0,1.0,89,0.00,,,0.00,Wunderground v.1.15,2013-02-03 02:59:00,
2013-02-02 22:03:00,15.1,12.4,30.04,WNW,301,0.0,0.0,89,0.00,,,0.00,Wunderground v.1.15,2013-02-03 03:03:00,
2013-02-02 22:04:00,15.1,12.4,30.04,WNW,301,1.0,1.0,89,0.00,,,0.00,Wunderground v.1.15,2013-02-03 03:04:00,
2013-02-02 22:08:00,15.0,12.3,30.04,NW,305,0.0,1.0,89,0.00,,,0.00,Wunderground v.1.15,2013-02-03 03:08:00,
2013-02-02 22:09:00,15.0,12.3,30.05,NW,305,0.0,1.0,89,0.00,,,0.00,Wunderground v.1.15,2013-02-03 03:09:00,
2013-02-02 22:10:00,15.0,12.3,30.04,WNW,284,1.0,1.0,89,0.00,,,0.00,Wunderground v.1.15,2013-02-03 03:10:00,
2013-02-02 22:13:00,15.0,12.3,30.04,WNW,284,0.0,1.0,89,0.00,,,0.00,Wunderground v.1.15,2013-02-03 03:13:00,
2013-02-02 22:14:00,15.0,12.3,30.04,WNW,284,0.0,1.0,89,0.00,,,0.00,Wunderground v.1.15,2013-02-03 03:14:00,
2013-02-02 22:15:00,15.0,12.3,30.04,WNW,284,0.0,1.0,89,0.00,,,0.00,Wunderground v.1.15,2013-02-03 03:15:00,
2013-02-02 22:18:00,15.0,12.3,30.04,WNW,284,0.0,1.0,89,0.00,,,0.00,Wunderground v.1.15,2013-02-03 03:18:00,
2013-02-02 22:19:00,15.0,12.3,30.04,WNW,284,0.0,1.0,89,0.00,,,0.00,Wunderground v.1.15,2013-02-03 03:19:00,
2013-02-02 22:20:00,15.0,12.3,30.04,WNW,284,0.0,0.0,89,0.00,,,0.00,Wunderground v.1.15,2013-02-03 03:20:00,
2013-02-02 22:23:00,14.9,12.2,30.04,WNW,284,0.0,0.0,89,0.00,,,0.00,Wunderground v.1.15,2013-02-03 03:23:00,
2013-02-02 22:24:00,14.9,12.2,30.04,WNW,284,0.0,0.0,89,0.00,,,0.00,Wunderground v.1.15,2013-02-03 03:24:00,
2013-02-02 22:25:00,14.9,12.2,30.04,WNW,284,0.0,0.0,89,0.00,,,0.00,Wunderground v.1.15,2013-02-03 03:25:00,
2013-02-02 22:29:00,14.9,12.2,30.04,WNW,284,0.0,1.0,89,0.00,,,0.00,Wunderground v.1.15,2013-02-03 03:29:00,
2013-02-02 22:31:00,14.9,12.0,30.04,WNW,284,0.0,0.0,88,0.00,,,0.00,Wunderground v.1.15,2013-02-03 03:31:00,
2013-02-02 22:34:00,14.9,12.0,30.04,SSW,211,0.0,2.0,88,0.00,,,0.00,Wunderground v.1.15,2013-02-03 03:34:00,
2013-02-02 22:36:00,14.8,11.9,30.04,SSW,211,0.0,2.0,88,0.00,,,0.00,Wunderground v.1.15,2013-02-03 03:36:00,
2013-02-02 22:39:00,14.8,11.9,30.04,SSW,211,0.0,2.0,88,0.00,,,0.00,Wunderground v.1.15,2013-02-03 03:39:00,
2013-02-02 22:40:00,14.8,11.9,30.04,SSW,211,0.0,0.0,88,0.00,,,0.00,Wunderground v.1.15,2013-02-03 03:40:00,
2013-02-02 22:41:00,14.8,11.9,30.04,SSW,211,0.0,0.0,88,0.00,,,0.00,Wunderground v.1.15,2013-02-03 03:41:00,
2013-02-02 22:45:00,14.8,11.9,30.04,SSW,211,0.0,1.0,88,0.00,,,0.00,Wunderground v.1.15,2013-02-03 03:45:00,
2013-02-02 22:46:00,14.8,11.9,30.04,SSW,211,0.0,1.0,88,0.00,,,0.00,Wunderground v.1.15,2013-02-03 03:46:00,
2013-02-02 22:50:00,14.8,12.1,30.04,SSW,211,0.0,1.0,89,0.00,,,0.00,Wunderground v.1.15,2013-02-03 03:50:00,
2013-02-02 22:51:00,14.8,12.1,30.04,SSW,211,1.0,1.0,89,0.00,,,0.00,Wunderground v.1.15,2013-02-03 03:51:00,
2013-02-02 22:55:00,14.7,11.8,30.04,SSW,211,0.0,1.0,88,0.00,,,0.00,Wunderground v.1.15,2013-02-03 03:55:00,
2013-02-02 22:56:00,14.7,11.8,30.04,SSW,211,0.0,1.0,88,0.00,,,0.00,Wunderground v.1.15,2013-02-03 03:56:00,
2013-02-02 22:57:00,14.7,11.8,30.04,SSW,211,0.0,1.0,88,0.00,,,0.00,Wunderground v.1.15,2013-02-03 03:57:00,
2013-02-02 23:00:00,14.7,11.8,30.04,SSW,211,0.0,0.0,88,0.00,,,0.00,Wunderground v.1.15,2013-02-03 04:00:00,
2013-02-02 23:01:00,14.7,11.8,30.04,SSW,211,0.0,1.0,88,0.00,,,0.00,Wunderground v.1.15,2013-02-03 04:01:00,
2013-02-02 23:02:00,14.7,11.8,30.04,SSW,211,0.0,1.0,88,0.00,,,0.00,Wunderground v.1.15,2013-02-03 04:02:00,
2013-02-02 23:05:00,14.6,11.7,30.04,SSW,211,0.0,1.0,88,0.00,,,0.00,Wunderground v.1.15,2013-02-03 04:05:00,
2013-02-02 23:07:00,14.6,11.7,30.04,SSW,211,0.0,1.0,88,0.00,,,0.00,Wunderground v.1.15,2013-02-03 04:07:00,
2013-02-02 23:10:00,14.6,11.9,30.04,SSW,211,0.0,1.0,89,0.00,,,0.00,Wunderground v.1.15,2013-02-03 04:10:00,
2013-02-02 23:11:00,14.6,11.9,30.04,SSW,211,0.0,1.0,89,0.00,,,0.00,Wunderground v.1.15,2013-02-03 04:11:00,
2013-02-02 23:12:00,14.6,11.9,30.04,SSW,211,1.0,3.0,89,0.00,,,0.00,Wunderground v.1.15,2013-02-03 04:12:00,
2013-02-02 23:13:00,14.6,11.9,30.04,WSW,242,2.0,3.0,89,0.00,,,0.00,Wunderground v.1.15,2013-02-03 04:13:00,
2013-02-02 23:15:00,14.5,11.9,30.04,West,267,0.0,3.0,89,0.00,,,0.00,Wunderground v.1.15,2013-02-03 04:15:00,
2013-02-02 23:16:00,14.5,11.9,30.04,West,261,0.0,3.0,89,0.00,,,0.00,Wunderground v.1.15,2013-02-03 04:16:00,
2013-02-02 23:17:00,14.4,11.8,30.04,WSW,256,0.0,4.0,89,0.00,,,0.00,Wunderground v.1.15,2013-02-03 04:17:00,
2013-02-02 23:18:00,14.4,11.8,30.04,WSW,256,1.0,4.0,89,0.00,,,0.00,Wunderground v.1.15,2013-02-03 04:18:00,
2013-02-02 23:21:00,14.4,11.8,30.04,WSW,256,1.0,2.0,89,0.00,,,0.00,Wunderground v.1.15,2013-02-03 04:21:00,
2013-02-02 23:22:00,14.4,11.8,30.04,WSW,256,1.0,2.0,89,0.00,,,0.00,Wunderground v.1.15,2013-02-03 04:22:00,
2013-02-02 23:23:00,14.4,11.8,30.04,WSW,256,1.0,2.0,89,0.00,,,0.00,Wunderground v.1.15,2013-02-03 04:23:00,
2013-02-02 23:26:00,14.4,11.8,30.04,WSW,256,1.0,3.0,89,0.00,,,0.00,Wunderground v.1.15,2013-02-03 04:26:00,
2013-02-02 23:27:00,14.3,11.7,30.04,WSW,252,0.0,3.0,89,0.00,,,0.00,Wunderground v.1.15,2013-02-03 04:27:00,
2013-02-02 23:29:00,14.3,11.9,30.04,WSW,251,1.0,3.0,90,0.00,,,0.00,Wunderground v.1.15,2013-02-03 04:29:00,
2013-02-02 23:31:00,14.3,11.7,30.04,West,272,2.0,3.0,89,0.00,,,0.00,Wunderground v.1.15,2013-02-03 04:31:00,
2013-02-02 23:32:00,14.2,11.6,30.04,West,272,2.0,3.0,89,0.00,,,0.00,Wunderground v.1.15,2013-02-03 04:32:00,
2013-02-02 23:35:00,14.2,11.8,30.04,West,264,0.0,3.0,90,0.00,,,0.00,Wunderground v.1.15,2013-02-03 04:35:00,
2013-02-02 23:37:00,14.1,11.7,30.04,West,264,0.0,3.0,90,0.00,,,0.00,Wunderground v.1.15,2013-02-03 04:37:00,
2013-02-02 23:38:00,14.1,11.7,30.04,West,264,0.0,3.0,90,0.00,,,0.00,Wunderground v.1.15,2013-02-03 04:38:00,
2013-02-02 23:40:00,14.1,11.7,30.04,West,265,0.0,2.0,90,0.00,,,0.00,Wunderground v.1.15,2013-02-03 04:40:00,
2013-02-02 23:43:00,14.0,11.4,30.04,West,265,0.0,2.0,89,0.00,,,0.00,Wunderground v.1.15,2013-02-03 04:43:00,
2013-02-02 23:44:00,14.0,11.4,30.05,West,265,0.0,2.0,89,0.00,,,0.00,Wunderground v.1.15,2013-02-03 04:44:00,
2013-02-02 23:45:00,14.0,11.4,30.04,West,265,0.0,2.0,89,0.00,,,0.00,Wunderground v.1.15,2013-02-03 04:45:00,
2013-02-02 23:48:00,13.9,11.3,30.05,West,265,0.0,2.0,89,0.00,,,0.00,Wunderground v.1.15,2013-02-03 04:48:00,
2013-02-02 23:50:00,13.9,11.3,30.05,West,265,0.0,0.0,89,0.00,,,0.00,Wunderground v.1.15,2013-02-03 04:50:00,
2013-02-02 23:51:00,13.9,11.3,30.04,West,265,0.0,0.0,89,0.00,,,0.00,Wunderground v.1.15,2013-02-03 04:51:00,
2013-02-02 23:53:00,13.9,11.3,30.05,West,265,0.0,0.0,89,0.00,,,0.00,Wunderground v.1.15,2013-02-03 04:53:00,
2013-02-02 23:56:00,13.8,11.2,30.04,West,265,0.0,0.0,89,0.00,,,0.00,Wunderground v.1.15,2013-02-03 04:56:00,
2013-02-02 23:59:00,13.8,10.9,30.05,West,265,0.0,0.0,88,0.00,,,0.00,Wunderground v.1.15,2013-02-03 04:59:00,